[[{"header":{"parameterUnit":"m.s-1","parameterCategory":1,"la1":30.2991,"la2":30.254,"lo1":-89.0895,"lo2":-89.0444,"dy":0.0017,"dx":0.0017,"nx":28,"ny":28,"refTime":"2025-06-22T09:00:00:Z","depth":0,"parameterNumber":2,"parameterNumberName":"U-component_of_WINDS"},"data":[0,0,0,0,0,0,0,0,0,0,0,0,0,0,0,0,0,0,0,0,0,0,0,0,0,0,0,0,0,0,0,0,0,0,0,0,0,0,0,0,0,0,0,0,0,0,0,0,0,0,0,0,0,0,0,0,0,0,-2.7305,-2.7305,0,-2.7314,-2.7314,-2.7314,-2.727,-2.7268,-2.7267,-2.7266,-2.7273,-2.7274,-2.7276,0,0,0,0,0,0,0,0,0,0,0,0,0,-2.725,-2.7251,-2.7305,-2.7305,-2.7305,-2.7313,-2.7314,-2.7314,-2.727,-2.7268,-2.7267,-2.7265,-2.7273,-2.7274,-2.7276,0,0,0,0,0,0,0,0,0,0,0,0,0,-2.7267,-2.7251,-2.7305,-2.7284,-2.7283,-2.7313,-2.7314,-2.7314,-2.727,-2.7268,-2.7266,-2.7264,-2.7272,-2.7274,-2.7276,-2.7327,0,0,-2.7282,-2.7283,0,0,0,0,0,0,0,0,-2.7266,-2.7269,-2.7287,-2.7286,-2.7284,-2.7289,-2.7297,-2.7318,-2.7271,-2.7275,-2.7266,-2.7264,-2.728,-2.7281,-2.7287,-2.7327,-2.7327,-2.7283,-2.7284,-2.7285,-2.7285,0,0,0,0,0,0,0,-2.7265,-2.7269,-2.7308,-2.7288,-2.7285,-2.7274,-2.7275,-2.7301,-2.7288,-2.7274,-2.7271,-2.7273,-2.7278,-2.7285,-2.7287,-2.7328,-2.7283,-2.7284,-2.7286,-2.7286,-2.7411,-2.7413,0,0,0,0,0,0,-2.7267,-2.7268,-2.7308,-2.7308,-2.727,-2.7277,-2.7277,-2.7289,-2.7287,-2.7285,-2.7274,-2.7271,-2.7282,-2.7284,-2.7287,-2.7347,-2.7285,-2.7287,-2.7288,-2.7409,-2.7412,-2.7414,0,0,0,0,0,0,-2.7266,-2.7271,-2.7308,-2.7288,-2.7291,-2.728,-2.7293,-2.729,-2.7296,-2.7287,-2.7285,-2.7283,-2.7281,-2.7284,-2.7317,-2.7346,-2.7288,-2.7289,-2.7407,-2.741,-2.7413,-2.7467,0,0,0,0,0,0,-2.7265,-2.7271,-2.729,-2.7288,-2.7293,-2.7339,-2.7295,-2.7292,-2.73,-2.7296,-2.7295,-2.7293,-2.728,-2.7315,-2.732,-2.7348,-2.7291,-2.7404,-2.7408,-2.7412,-2.7462,-2.7471,-2.7479,0,0,0,0,0,-2.7263,-2.7304,-2.7291,-2.7296,-2.7317,-2.734,-2.7343,-2.7327,-2.7303,-2.7322,-2.7316,-2.7293,-2.7342,-2.7319,-2.7324,-2.7353,-2.7402,-2.7407,-2.7411,-2.7458,-2.7469,-2.7479,0,0,0,0,0,0,-2.7309,-2.7304,-2.7289,-2.7332,-2.7337,-2.7333,-2.7357,-2.7339,-2.735,-2.7345,-2.7324,-2.7324,-2.7362,-2.7361,-2.7334,-2.7403,-2.7368,-2.7374,-2.7402,-2.7412,-2.742,-2.742,-2.7293,0,0,0,0,0,-2.7324,-2.7345,-2.7339,-2.7377,-2.738,-2.7368,-2.7378,-2.7365,-2.737,-2.7371,-2.7368,-2.7373,-2.739,-2.7401,-2.7415,-2.7462,-2.7461,-2.7485,-2.7493,-2.75,-2.7505,-2.753,-2.7541,-2.7429,-2.7429,-2.7429,0,0,-2.7356,-2.7355,-2.7369,-2.7386,-2.7389,-2.741,-2.737,-2.7394,-2.741,-2.7375,-2.7407,-2.7405,-2.7409,-2.745,-2.7467,-2.745,-2.7536,-2.7506,-2.7511,-2.7513,-2.7536,-2.7547,-2.7556,-2.7432,-2.7432,-2.7431,0,0,-2.7424,-2.7426,-2.7458,-2.7462,-2.7467,-2.7459,-2.7467,-2.7466,-2.7463,-2.7495,-2.747,-2.7488,-2.7517,-2.7521,-2.7527,-2.7598,-2.7578,-2.7604,-2.7647,-2.7672,-2.7681,-2.7688,-2.7714,-2.7724,-2.7609,-2.7609,-2.7609,0,-2.7462,-2.7494,-2.7477,-2.7503,-2.7511,-2.7481,-2.7514,-2.7518,-2.7528,-2.7534,-2.7514,-2.7551,-2.7551,-2.7593,-2.761,-2.7616,-2.7624,-2.7603,-2.7681,-2.7688,-2.7695,-2.772,-2.773,-2.7612,-2.7612,-2.7611,-2.7611,0,-2.7541,-2.7563,-2.7589,-2.76,-2.7611,-2.764,-2.7627,-2.764,-2.7627,-2.7621,-2.7654,-2.7654,-2.7669,-2.7678,-2.7664,-2.7718,-2.7707,-2.7684,-2.7649,-2.7709,-2.7732,-2.7741,-2.7617,-2.7616,-2.7615,-2.7614,0,0,-2.7638,-2.764,-2.7649,-2.7654,-2.7658,-2.7675,-2.7703,-2.7718,-2.773,-2.7738,-2.7761,-2.7787,-2.7766,-2.7773,-2.776,-2.7782,-2.7839,-2.7757,-2.7757,-2.7773,-2.7899,-2.7916,-2.7927,-2.7826,-2.7828,-2.7829,-2.7899,0,-2.7705,-2.7754,-2.774,-2.7788,-2.7809,-2.7782,-2.7806,-2.7811,-2.7807,-2.7824,-2.7818,-2.7837,-2.7809,-2.7813,-2.7833,-2.7828,-2.7865,-2.7823,-2.7847,-2.7848,-2.7847,-2.7939,-2.7957,-2.8023,-2.7907,-2.7909,-2.791,0,-2.779,-2.7802,-2.7853,-2.7855,-2.7863,-2.7885,-2.7899,-2.7915,-2.792,-2.7915,-2.7924,-2.7907,-2.7934,-2.7899,-2.7937,-2.7909,-2.7919,-2.7918,-2.792,-2.7922,-2.7883,-2.7943,-2.8043,-2.8053,-2.7924,-2.7923,-2.7922,0,-2.7856,-2.7885,-2.792,-2.7925,-2.7927,-2.7944,-2.7945,-2.7949,-2.7959,-2.7971,-2.7977,-2.7991,-2.7999,-2.8011,-2.7998,-2.7973,-2.8038,-2.8002,-2.8035,-2.8035,-2.8049,-2.8049,-2.8152,-2.8055,-2.8055,-2.8055,-2.8055,0,-2.7933,-2.7965,-2.795,-2.7971,-2.8007,-2.799,-2.8026,-2.8025,-2.8028,-2.8049,-2.8026,-2.8045,-2.8027,-2.8045,-2.8035,-2.8069,-2.8072,-2.8069,-2.8066,-2.8071,-2.8072,-2.8077,-2.8072,-2.8058,-2.8057,-2.8056,-2.8056,0,-2.8012,-2.8003,-2.804,-2.8039,-2.804,-2.8067,-2.8066,-2.8086,-2.808,-2.8107,-2.8112,-2.8103,-2.8123,-2.8111,-2.8132,-2.8125,-2.8169,-2.8159,-2.8167,-2.8165,-2.8198,-2.8196,-2.8309,-2.8324,-2.8217,-2.8218,-2.8219,0,-2.8062,-2.8087,-2.809,-2.8102,-2.8106,-2.8126,-2.8137,-2.8122,-2.8134,-2.8142,-2.8161,-2.818,-2.8193,-2.8227,-2.8222,-2.8238,-2.8229,-2.8267,-2.8231,-2.8236,-2.823,-2.8228,-2.8231,-2.8275,-2.8276,-2.8277,-2.8278,0,-2.8151,-2.8146,-2.8163,-2.8179,-2.8192,-2.8204,-2.8213,-2.8224,-2.8209,-2.8224,-2.8245,-2.8256,-2.8278,-2.8296,-2.831,-2.8311,-2.8292,-2.829,-2.8298,-2.8304,-2.8307,-2.8306,-2.8187,-2.8287,-2.8286,-2.8285,-2.8285,-2.8284,-2.8218,-2.8239,-2.8244,-2.8264,-2.827,-2.828,-2.8298,-2.8296,-2.8313,-2.833,-2.832,-2.8344,-2.835,-2.8366,-2.837,-2.8389,-2.8373,-2.8386,-2.8389,-2.8392,-2.8397,-2.8305,-2.8391,-2.8391,-2.8391,-2.8391,-2.8391,0,-2.8306,-2.8309,-2.8327,-2.8342,-2.8357,-2.8339,-2.8349,-2.8363,-2.8385,-2.8392,-2.8407,-2.8431,-2.8449,-2.8446,-2.8463,-2.8479,-2.8471,-2.8484,-2.8482,-2.8483,-2.841,-2.8401,-2.849,-2.849,-2.849,-2.849,-2.849,-2.849,-2.8354,-2.8389,-2.8384,-2.8422,-2.8424,-2.8449,-2.8456,-2.8465,-2.8471,-2.8499,-2.8515,-2.8513,-2.8516,-2.8533,-2.8549,-2.8547,-2.8555,-2.8571,-2.8567,-2.8498,-2.8488,-2.8479,-2.847,-2.8573,-2.8573,-2.8638,-2.8639,-2.8639]},{"header":{"parameterUnit":"m.s-1","parameterCategory":1,"la1":30.2991,"la2":30.254,"lo1":-89.0895,"lo2":-89.0444,"dy":0.0017,"dx":0.0017,"nx":28,"ny":28,"refTime":"2025-06-22T09:00:00:Z","depth":0,"parameterNumber":3,"parameterNumberName":"V-component_of_WINDS"},"data":[0,0,0,0,0,0,0,0,0,0,0,0,0,0,0,0,0,0,0,0,0,0,0,0,0,0,0,0,0,0,0,0,0,0,0,0,0,0,0,0,0,0,0,0,0,0,0,0,0,0,0,0,0,0,0,0,0,0,-0.8195,-0.8195,0,-0.8192,-0.8192,-0.8192,-0.8184,-0.8184,-0.8184,-0.8184,-0.818,-0.818,-0.818,0,0,0,0,0,0,0,0,0,0,0,0,0,-0.8192,-0.8192,-0.8195,-0.8195,-0.8195,-0.8192,-0.8192,-0.8192,-0.8185,-0.8184,-0.8184,-0.8184,-0.818,-0.818,-0.818,0,0,0,0,0,0,0,0,0,0,0,0,0,-0.8192,-0.8192,-0.8195,-0.8191,-0.819,-0.8192,-0.8192,-0.8192,-0.8185,-0.8184,-0.8184,-0.8184,-0.818,-0.818,-0.818,-0.8186,0,0,-0.8181,-0.8181,0,0,0,0,0,0,0,0,-0.8192,-0.8192,-0.8191,-0.8191,-0.8191,-0.8188,-0.819,-0.819,-0.8185,-0.8187,-0.8184,-0.8184,-0.8183,-0.8183,-0.8183,-0.8186,-0.8186,-0.8181,-0.8181,-0.8181,-0.8181,0,0,0,0,0,0,0,-0.8192,-0.8192,-0.8194,-0.8191,-0.8191,-0.8188,-0.8188,-0.819,-0.8186,-0.8187,-0.8186,-0.8186,-0.8183,-0.8183,-0.8183,-0.8186,-0.8181,-0.8181,-0.8181,-0.8181,-0.8192,-0.8192,0,0,0,0,0,0,-0.8192,-0.8192,-0.8194,-0.8194,-0.8191,-0.8189,-0.8188,-0.8189,-0.8186,-0.8186,-0.8186,-0.8185,-0.8183,-0.8183,-0.8183,-0.8188,-0.8181,-0.8181,-0.8181,-0.8191,-0.8192,-0.8192,0,0,0,0,0,0,-0.8192,-0.8193,-0.8194,-0.8193,-0.8193,-0.8189,-0.819,-0.8189,-0.819,-0.8186,-0.8185,-0.8187,-0.8183,-0.8183,-0.8185,-0.8188,-0.8181,-0.8181,-0.8191,-0.8191,-0.8192,-0.82,0,0,0,0,0,0,-0.8192,-0.8193,-0.8195,-0.8193,-0.8193,-0.8197,-0.819,-0.819,-0.819,-0.8189,-0.8187,-0.8186,-0.8183,-0.8185,-0.8185,-0.8188,-0.8181,-0.8191,-0.8191,-0.8192,-0.82,-0.8201,-0.8202,0,0,0,0,0,-0.8192,-0.8198,-0.8195,-0.8196,-0.8196,-0.8197,-0.8197,-0.8194,-0.819,-0.8192,-0.819,-0.8186,-0.8188,-0.8185,-0.8185,-0.8189,-0.8191,-0.8191,-0.8192,-0.8199,-0.8201,-0.8202,0,0,0,0,0,0,-0.8201,-0.8198,-0.8195,-0.82,-0.8199,-0.8196,-0.8199,-0.8195,-0.8195,-0.8194,-0.819,-0.8189,-0.8192,-0.819,-0.8188,-0.8193,-0.8188,-0.8189,-0.8194,-0.8196,-0.8197,-0.8197,-0.8181,0,0,0,0,0,-0.8203,-0.8205,-0.8202,-0.8207,-0.8206,-0.8203,-0.8203,-0.82,-0.8199,-0.8198,-0.8196,-0.8195,-0.8195,-0.8195,-0.8195,-0.8199,-0.8198,-0.8201,-0.8202,-0.8203,-0.8204,-0.8205,-0.8207,-0.8194,-0.8194,-0.8194,0,0,-0.8209,-0.8207,-0.8208,-0.8208,-0.8207,-0.8209,-0.8202,-0.8204,-0.8205,-0.8199,-0.8201,-0.8199,-0.8197,-0.82,-0.8201,-0.8199,-0.8207,-0.8204,-0.8205,-0.8205,-0.8206,-0.8207,-0.8208,-0.8194,-0.8194,-0.8194,0,0,-0.8219,-0.8218,-0.8221,-0.822,-0.8219,-0.8216,-0.8217,-0.8214,-0.8213,-0.8215,-0.821,-0.821,-0.8211,-0.8209,-0.8209,-0.8217,-0.8213,-0.8217,-0.8223,-0.8224,-0.8225,-0.8226,-0.8228,-0.8229,-0.8217,-0.8217,-0.8217,0,-0.8225,-0.8228,-0.8224,-0.8226,-0.8225,-0.8219,-0.8223,-0.8222,-0.822,-0.822,-0.8217,-0.8217,-0.8215,-0.8217,-0.8219,-0.8219,-0.8219,-0.8217,-0.8225,-0.8226,-0.8227,-0.8229,-0.823,-0.8218,-0.8218,-0.8218,-0.8218,0,-0.8236,-0.8237,-0.824,-0.8239,-0.8239,-0.8241,-0.8237,-0.8237,-0.8234,-0.8231,-0.8233,-0.8231,-0.823,-0.823,-0.8227,-0.8231,-0.823,-0.8226,-0.8221,-0.8229,-0.8231,-0.8232,-0.8219,-0.8218,-0.8218,-0.8218,0,0,-0.8252,-0.8248,-0.8249,-0.8248,-0.8245,-0.8246,-0.8248,-0.8247,-0.8247,-0.8246,-0.8247,-0.8247,-0.8243,-0.8242,-0.8239,-0.824,-0.8246,-0.8236,-0.8236,-0.8238,-0.825,-0.8253,-0.8254,-0.8243,-0.8243,-0.8243,-0.825,0,-0.8262,-0.8265,-0.8261,-0.8265,-0.8266,-0.826,-0.8261,-0.8259,-0.8256,-0.8256,-0.8253,-0.8253,-0.8248,-0.8247,-0.8248,-0.8245,-0.8248,-0.8244,-0.8243,-0.8243,-0.8244,-0.8255,-0.8258,-0.8265,-0.8251,-0.8251,-0.8251,0,-0.8274,-0.8273,-0.8277,-0.8273,-0.8273,-0.8275,-0.8273,-0.8273,-0.827,-0.8268,-0.8267,-0.8262,-0.8263,-0.8258,-0.8258,-0.8256,-0.8255,-0.8253,-0.8253,-0.8253,-0.8248,-0.8255,-0.8267,-0.8268,-0.8252,-0.8252,-0.8252,0,-0.8285,-0.8285,-0.8287,-0.8286,-0.8282,-0.8283,-0.8281,-0.8278,-0.8277,-0.8276,-0.8275,-0.8273,-0.8272,-0.8271,-0.8266,-0.8263,-0.8266,-0.8261,-0.8264,-0.8264,-0.8266,-0.8266,-0.8278,-0.8265,-0.8265,-0.8265,-0.8265,0,-0.8296,-0.8299,-0.8292,-0.8293,-0.8296,-0.829,-0.8293,-0.829,-0.8287,-0.8288,-0.8282,-0.8282,-0.8275,-0.8275,-0.827,-0.8271,-0.8271,-0.8269,-0.8267,-0.8269,-0.8269,-0.8269,-0.8268,-0.8265,-0.8265,-0.8265,-0.8265,0,-0.831,-0.8305,-0.8307,-0.8302,-0.8301,-0.8303,-0.8299,-0.83,-0.8296,-0.8296,-0.8296,-0.829,-0.8289,-0.8284,-0.8281,-0.8278,-0.828,-0.8278,-0.8281,-0.8281,-0.8284,-0.8284,-0.8296,-0.8297,-0.8284,-0.8284,-0.8284,0,-0.8317,-0.8319,-0.8314,-0.8314,-0.8313,-0.8312,-0.8312,-0.8306,-0.8305,-0.8301,-0.8302,-0.8301,-0.8299,-0.8297,-0.8292,-0.829,-0.8288,-0.8292,-0.8287,-0.8289,-0.8287,-0.8287,-0.8287,-0.8293,-0.8293,-0.8293,-0.8294,0,-0.8331,-0.8328,-0.8328,-0.8326,-0.8325,-0.8323,-0.8321,-0.8321,-0.8315,-0.8314,-0.8313,-0.8311,-0.8308,-0.8306,-0.8303,-0.83,-0.8296,-0.8295,-0.8295,-0.8297,-0.8299,-0.8298,-0.8284,-0.8295,-0.8295,-0.8295,-0.8295,-0.8295,-0.8341,-0.8342,-0.8339,-0.8338,-0.8336,-0.8334,-0.8334,-0.833,-0.8329,-0.8327,-0.8323,-0.8322,-0.8318,-0.8313,-0.831,-0.8309,-0.8306,-0.8307,-0.8307,-0.8308,-0.8308,-0.8299,-0.8308,-0.8308,-0.8308,-0.8308,-0.8308,0,-0.8355,-0.8352,-0.8351,-0.8348,-0.8347,-0.8343,-0.834,-0.8339,-0.8339,-0.8335,-0.8334,-0.8331,-0.8329,-0.8324,-0.8321,-0.8321,-0.8318,-0.832,-0.832,-0.8319,-0.8311,-0.8311,-0.8322,-0.8322,-0.8322,-0.8322,-0.8322,-0.8322,-0.8361,-0.8363,-0.836,-0.8359,-0.8357,-0.8356,-0.8354,-0.8352,-0.8349,-0.8347,-0.8345,-0.8342,-0.8338,-0.8334,-0.8332,-0.833,-0.8329,-0.8332,-0.8329,-0.8322,-0.832,-0.8319,-0.8319,-0.8331,-0.8331,-0.8338,-0.8338,-0.8338]}]]